Location: Lombray
(49.5154°N, 3.1089°E)
Time: 08:20:54
(UTC+00:00)

USA 186 - Pass Details

Date: 15 May 2026
Orbit: 338 x 359 km, 97.0° (Epoch: 19 May)

Event Time Altitude Azimuth Distance (km) Brightness Sun altitude
Exits shadow 21:12:57 11° 208° (SSW) 1,217 3.8 -13.7°
Maximum altitude 21:15:06 24° 264° (W) 753 3.4 -13.9°
Drops below altitude 10° 21:17:27 10° 322° (NW) 1,296 5.7 -14.2°
Sets 21:19:35 0° 337° (NNW) 2,141 7.1 -14.4°
